lazyoaf.com alexa rank chart, lazyoaf.com alexa rank daily changes

lazyoaf.com alexa rank chart, lazyoaf.com alexa rank daily changes

lazyoaf.com
Actual rank:
50 254

RANK HISTORY

Date Rank Diff
2017/01/16 50 254 +1 209
2017/01/15 49 045 +915
2017/01/14 48 130 +14
2017/01/13 48 116 +231
2017/01/12 47 885 +1 014
2017/01/11 46 871 +521
2017/01/10 46 350 -241
2017/01/09 46 591 +63
2017/01/08 46 528 +36
2017/01/07 46 492 +567
2017/01/06 45 925 +520
2017/01/05 45 405 +1 211
2017/01/04 44 194 +66
2017/01/03 44 128 -1 436
2017/01/02 45 564 +1 735
2017/01/01 43 829 -39
2016/12/31 43 868 +382
2016/12/30 43 486 -125
2016/12/29 43 611 +586
2016/12/28 43 025 +359
2016/12/27 42 666 -125
2016/12/26 42 791 -273
2016/12/25 43 064 +759
2016/12/24 42 305 +432
2016/12/23 41 873 +768
2016/12/22 41 105 +2 026
2016/12/21 39 079 +948
2016/12/20 38 131 +1 556
2016/12/19 36 575 +465
2016/12/18 36 110 +467
2016/12/17 35 643 +1 299
2016/12/16 34 344 +1 478
2016/12/15 32 866 +1 800
2016/12/14 31 066 +685
2016/12/13 30 381 +570
2016/12/12 29 811 +814
2016/12/11 28 997 +555
2016/12/10 28 442 -236
2016/12/09 28 678 +555
2016/12/08 28 123 +915
2016/12/07 27 208 +242
2016/12/06 26 966 +172
2016/12/05 26 794 -130
2016/12/04 26 924 +41
2016/12/02 26 883 -523
2016/12/01 27 406 -617
2016/11/30 28 023 -391
2016/11/29 28 414 -90
2016/11/28 28 504 -272
2016/11/27 28 776 -485
2016/11/26 29 261 -712
2016/11/25 29 973 -482
2016/11/24 30 455 -658
2016/11/23 31 113 -3 004
2016/11/19 34 117 -648
2016/11/18 34 765 -514
2016/11/17 35 279

WIDGET FOR YOUR SITE

DOMAINS WITH THE NEAREST RANK

Domain Rank
fost.ws 50 249
kisskissbankbank.com 50 250
wissports.net 50 251
nitago.com 50 252
monitor.hr 50 253
lazyoaf.com 50 254
aarons.com 50 255
danlambaovn.blogspot.com 50 256
orbis.co.jp 50 257
bigspeeds.com 50 258
presentbulletin.com 50 259

DOMAINS WITH THE NEAREST RANK BY TLD .com

Domain Rank
pari-matchbet2.com 50 242
tvynovelas.com 50 243
findmefreebies.com 50 245
kisskissbankbank.com 50 250
nitago.com 50 252
lazyoaf.com 50 254
aarons.com 50 255
bigspeeds.com 50 258
presentbulletin.com 50 259
thefreshquotes.com 50 261
becomingminimalist.com 50 263